Skip Page Navigation
NASA JPL Caltech
NASA Logo - Jet Propulsion Laboratory + View the NASA Portal
+ Near-Earth Object (NEO) Program
Search JPL
JPL Home Earth Solar System Stars & Galaxies Technology
JPL Solar System Dynamics
BODIES ORBITS EPHEMERIDES TOOLS PHYSICAL DATA DISCOVERY FAQ SITE MAP
JPL Small-Body Database Browser
Search: [ help ]  
217P/LINEAR
Classification: Jupiter-family Comet [NEO]          SPK-ID: 1000345
Ephemeris | Orbit Diagram | Orbital Elements | Physical Parameters | Close-Approach Data ]

[ hide orbit diagram ]
Orbit Diagram
Note: Make sure you have Java enabled on your browser to see the applet. This applet is provided as a 3D orbit visualization tool. The applet was implemented using 2-body methods, and hence should not be used for determining accurate long-term trajectories (over several years or decades) or planetary encounter circumstances. For accurate long-term ephemerides, please instead use our Horizons system.
Orbit Viewer

Additional Notes: the orbits shown in the applet are color coded. The planets are white lines, and the asteroid/comet is a blue line. The bright white line indicates the portion of the orbit that is above the ecliptic plane, and the darker portion is below the ecliptic plane. Likewise for the asteroid/comet orbit, the light blue indicates the portion above the ecliptic plane, and the dark blue the portion below the ecliptic plane.

Orbit Viewer applet originally written and kindly provided by Osamu Ajiki (AstroArts), and further modified by Ron Baalke (JPL).


Orbital Elements at Epoch 2454831.5 (2008-Dec-31.0) TDB
Reference: JPL 112 (heliocentric ecliptic J2000)
 Element Value Uncertainty (1-sigma)   Units 
e .6896427727758345 2.9637e-08  
a 3.942173905947232 2.9401e-08 AU
q 1.223482162685241 1.128e-07 AU
i 12.88187029157353 3.6199e-06 deg
node 125.6220424616683 1.683e-05 deg
peri 246.7754602321108 2.2179e-05 deg
M 328.2702239246165 2.0494e-06 deg
tp 2455083.480307562436
(2009-Sep-08.98030756)
1.6226e-05 JED
period 2858.920608420356
7.83
3.1983e-05
8.756e-08
d
yr
n .125921649919097 1.4087e-09 deg/d
Q 6.660865649209223 4.9677e-08 AU
  Orbit Determination Parameters
   # obs. used (total)      2403  
   data-arc span      3210 days (8.79 yr)  
   first obs. used      2001-06-21  
   last obs. used      2010-04-05  
   planetary ephem.      DE405  
   SB-pert. ephem.      SB405-CPV-2  
   condition code      0  
   fit RMS      .78731  
   data source      ORB  
   producer      Otto Matic  
   solution date      2011-Sep-14 21:13:08  

Additional Information
 Earth MOID = .306437 AU 
 T_jup = 2.549 
[ show covariance matrix ]

Ephemeris | Orbit Diagram | Orbital Elements | Physical Parameters | Close-Approach Data ]

Physical Parameter Table
Parameter Symbol Value Units Sigma Reference Notes
comet total magnitude M1 14.1 mag 1. 112 2 parameter fit from 405 observations, autocmod 2.5a
comet total magnitude slope K1 7.   n/a 112 autocmod 2.5a

[ show close-approach data ]
Alternate Designations
 Perihelion 
Year
(est.)
 New-Style 
Desig
Roman
 Numeral 
Year/
 Letter 
 2009.7   217P/2009 F3       
 2001.9   217P/2001 MD7       
Ephemeris | Orbit Diagram | Orbital Elements | Physical Parameters | Close-Approach Data ]
ABOUT SSD CREDITS/AWARDS PRIVACY/COPYRIGHT GLOSSARY LINKS
FirstGov 2013-May-20 15:16 UT
(server date/time)  
NASA Home Page
Site Manager:   Donald K. Yeomans
Webmaster  Alan B. Chamberlin